Location: Andrea Ville Subdivision
(14.3485°N, 120.9580°E)
Time: 02:54:46
(UTC+00:00)

Meteosat 1 Rocket2 - Pass Details

Date: 13 January 2026
Orbit: 484 x 2267 km, 28.3° (Epoch: 15 February)

Event Time Altitude Azimuth Distance (km) Brightness Sun altitude
Rises 10:35:11 0° 265° (W) 2,582 8.0 -12.1°
Reaches altitude 10° 10:37:17 10° 274° (W) 1,778 6.6 -12.6°
Maximum altitude 10:40:59 37° 343° (NNW) 973 4.0 -13.4°
Enters shadow 10:44:20 17° 43° (NE) 1,798 4.9 -14.2°
